• Em Portugal
  • Lista de países
  • Para 7 dias
  • Temperatura da água
  • Mapas de satélite
  • Mapa do tempo
  • Widgets de tempo
  • user-avatar
    Iniciar Sessão

    Previsão horária em Shuhovcy

    Hoje, 25 Setembro, Terça-feira

    Tempo Temperatura Precipitação Vento Pressão Humidade
    00:00 +5°C° 0.1 mm 6 m/s 736 mmHg 90%
    01:00 +5°C° 0.1 mm 6 m/s 736 mmHg 90%
    02:00 +5°C° 0 mm 6 m/s 737 mmHg 90%
    03:00 +5°C° 0 mm 6 m/s 738 mmHg 90%
    04:00 +4°C° 0 mm 6 m/s 739 mmHg 91%
    05:00 +4°C° 0 mm 6 m/s 739 mmHg 91%
    06:00 +4°C° 0 mm 6 m/s 740 mmHg 90%
    07:00 +4°C° 0 mm 6 m/s 740 mmHg 89%
    08:00 +3°C° 0 mm 6 m/s 741 mmHg 88%
    09:00 +4°C° 0 mm 6 m/s 742 mmHg 87%
    10:00 +4°C° 0 mm 6 m/s 743 mmHg 86%
    11:00 +4°C° 0 mm 6 m/s 743 mmHg 85%
    12:00 +4°C° 0 mm 6 m/s 744 mmHg 82%
    13:00 +5°C° 0 mm 6 m/s 744 mmHg 79%
    14:00 +7°C° 0 mm 6 m/s 745 mmHg 76%
    15:00 +7°C° 0 mm 5 m/s 745 mmHg 76%
    16:00 +7°C° 0 mm 5 m/s 746 mmHg 75%
    17:00 +6°C° 0 mm 4 m/s 746 mmHg 74%
    18:00 +5°C° 0 mm 4 m/s 747 mmHg 76%
    19:00 +5°C° 0 mm 4 m/s 748 mmHg 77%
    20:00 +4°C° 0 mm 4 m/s 748 mmHg 79%
    21:00 +3°C° 0 mm 4 m/s 749 mmHg 79%
    22:00 +3°C° 0 mm 4 m/s 750 mmHg 79%
    23:00 +1°C° 0 mm 4 m/s 750 mmHg 80%

    Amanhã, 26 Setembro, Quarta-feira

    Tempo Temperatura Precipitação Vento Pressão Humidade
    00:00 +1°C° 0 mm 4 m/s 751 mmHg 80%
    01:00 +1°C° 0 mm 4 m/s 751 mmHg 80%
    02:00 0°C° 0 mm 4 m/s 752 mmHg 81%
    03:00 +1°C° 0 mm 3 m/s 752 mmHg 83%
    04:00 +1°C° 0 mm 3 m/s 753 mmHg 86%
    05:00 0°C° 0 mm 3 m/s 753 mmHg 88%
    06:00 +1°C° 0 mm 3 m/s 753 mmHg 86%
    07:00 +1°C° 0 mm 4 m/s 753 mmHg 84%
    08:00 +3°C° 0 mm 4 m/s 754 mmHg 81%
    09:00 +5°C° 0 mm 4 m/s 753 mmHg 74%
    10:00 +7°C° 0 mm 5 m/s 753 mmHg 67%
    11:00 +9°C° 0 mm 5 m/s 753 mmHg 60%
    12:00 +9°C° 0 mm 5 m/s 753 mmHg 59%
    13:00 +10°C° 0 mm 6 m/s 752 mmHg 58%
    14:00 +10°C° 0 mm 6 m/s 752 mmHg 57%
    15:00 +10°C° 0 mm 6 m/s 751 mmHg 59%
    16:00 +9°C° 0 mm 6 m/s 750 mmHg 62%
    17:00 +8°C° 0 mm 6 m/s 750 mmHg 64%
    18:00 +8°C° 0.3 mm 6 m/s 749 mmHg 68%
    19:00 +6°C° 0.3 mm 7 m/s 748 mmHg 72%
    20:00 +5°C° 0.3 mm 8 m/s 748 mmHg 76%
    21:00 +5°C° 0.5 mm 8 m/s 747 mmHg 80%
    22:00 +5°C° 0.5 mm 9 m/s 746 mmHg 83%
    23:00 +5°C° 0.5 mm 10 m/s 745 mmHg 86%

    Depois de amanhã, 27 Setembro, Quinta-feira

    Tempo Temperatura Precipitação Vento Pressão Humidade
    00:00 +5°C° 0.6 mm 10 m/s 744 mmHg 87%
    01:00 +5°C° 0.6 mm 10 m/s 743 mmHg 88%
    02:00 +5°C° 0.6 mm 9 m/s 742 mmHg 89%
    03:00 +5°C° 0.3 mm 10 m/s 741 mmHg 89%
    04:00 +6°C° 0.3 mm 10 m/s 740 mmHg 89%
    05:00 +6°C° 0.3 mm 10 m/s 740 mmHg 89%
    06:00 +6°C° 0.7 mm 9 m/s 740 mmHg 90%
    07:00 +7°C° 0.7 mm 8 m/s 740 mmHg 91%
    08:00 +9°C° 0.7 mm 7 m/s 740 mmHg 91%
    09:00 +9°C° 0.1 mm 6 m/s 741 mmHg 82%
    10:00 +10°C° 0.1 mm 6 m/s 741 mmHg 73%
    11:00 +11°C° 0.1 mm 6 m/s 741 mmHg 64%
    12:00 +13°C° 0 mm 6 m/s 741 mmHg 62%
    13:00 +13°C° 0 mm 6 m/s 742 mmHg 60%
    14:00 +14°C° 0 mm 6 m/s 742 mmHg 57%
    15:00 +13°C° 0 mm 6 m/s 742 mmHg 62%
    16:00 +12°C° 0 mm 5 m/s 742 mmHg 66%
    17:00 +11°C° 0 mm 4 m/s 742 mmHg 71%
    18:00 +11°C° 0 mm 4 m/s 743 mmHg 73%
    19:00 +10°C° 0 mm 4 m/s 743 mmHg 75%
    20:00 +8°C° 0 mm 4 m/s 743 mmHg 77%
    21:00 +7°C° 0 mm 4 m/s 743 mmHg 80%
    22:00 +7°C° 0 mm 4 m/s 743 mmHg 82%
    23:00 +7°C° 0 mm 4 m/s 742 mmHg 84%

    28 Setembro, Sexta-feira

    Tempo Temperatura Precipitação Vento Pressão Humidade
    00:00 +8°C° 0 mm 5 m/s 742 mmHg 85%
    01:00 +9°C° 0 mm 6 m/s 741 mmHg 85%
    02:00 +9°C° 0 mm 7 m/s 740 mmHg 85%
    03:00 +10°C° 0 mm 8 m/s 739 mmHg 85%
    04:00 +11°C° 0 mm 8 m/s 738 mmHg 85%
    05:00 +12°C° 0 mm 9 m/s 738 mmHg 85%
    06:00 +12°C° 0.2 mm 9 m/s 737 mmHg 85%
    07:00 +12°C° 0.2 mm 9 m/s 737 mmHg 85%
    08:00 +12°C° 0.2 mm 9 m/s 737 mmHg 85%
    09:00 +12°C° 0.5 mm 9 m/s 737 mmHg 85%
    10:00 +12°C° 0.5 mm 8 m/s 737 mmHg 85%
    11:00 +12°C° 0.5 mm 8 m/s 738 mmHg 85%
    12:00 +12°C° 0.2 mm 8 m/s 738 mmHg 79%
    13:00 +12°C° 0.2 mm 7 m/s 739 mmHg 74%
    14:00 +12°C° 0.2 mm 7 m/s 739 mmHg 69%
    15:00 +12°C° 0 mm 5 m/s 740 mmHg 71%
    16:00 +11°C° 0 mm 4 m/s 741 mmHg 74%
    17:00 +10°C° 0 mm 3 m/s 741 mmHg 76%
    18:00 +9°C° 0 mm 2 m/s 742 mmHg 80%
    19:00 +8°C° 0 mm 2 m/s 742 mmHg 83%
    20:00 +7°C° 0 mm 1 m/s 743 mmHg 86%
    21:00 +7°C° 0 mm 1 m/s 743 mmHg 86%
    22:00 +7°C° 0 mm 1 m/s 744 mmHg 87%
    23:00 +6°C° 0 mm 1 m/s 744 mmHg 87%

    29 Setembro, Sábado

    Tempo Temperatura Precipitação Vento Pressão Humidade
    00:00 +6°C° 0 mm 1 m/s 744 mmHg 88%
    01:00 +6°C° 0 mm 1 m/s 745 mmHg 89%
    02:00 +5°C° 0 mm 1 m/s 745 mmHg 90%
    03:00 +5°C° 0 mm 1 m/s 746 mmHg 91%
    04:00 +5°C° 0 mm 1 m/s 746 mmHg 93%
    05:00 +4°C° 0 mm 1 m/s 747 mmHg 94%
    06:00 +4°C° 0 mm 2 m/s 747 mmHg 91%
    07:00 +5°C° 0 mm 2 m/s 748 mmHg 88%
    08:00 +5°C° 0 mm 2 m/s 748 mmHg 85%
    09:00 +7°C° 0 mm 2 m/s 749 mmHg 76%
    10:00 +8°C° 0 mm 3 m/s 750 mmHg 68%
    11:00 +9°C° 0 mm 3 m/s 750 mmHg 59%
    12:00 +9°C° 0 mm 3 m/s 750 mmHg 56%
    13:00 +10°C° 0 mm 3 m/s 751 mmHg 53%
    14:00 +10°C° 0 mm 3 m/s 751 mmHg 49%
    15:00 +9°C° 0 mm 3 m/s 751 mmHg 54%
    16:00 +8°C° 0 mm 2 m/s 751 mmHg 58%
    17:00 +7°C° 0 mm 2 m/s 752 mmHg 62%
    18:00 +6°C° 0 mm 2 m/s 752 mmHg 64%
    19:00 +6°C° 0 mm 1 m/s 753 mmHg 66%
    20:00 +5°C° 0 mm 1 m/s 753 mmHg 67%
    21:00 +4°C° 0 mm 1 m/s 754 mmHg 69%
    22:00 +4°C° 0 mm 1 m/s 754 mmHg 70%
    23:00 +2°C° 0 mm 0 m/s 754 mmHg 71%

    30 Setembro, Domingo

    Tempo Temperatura Precipitação Vento Pressão Humidade
    00:00 +2°C° 0 mm 0 m/s 754 mmHg 72%
    01:00 +3°C° 0 mm 1 m/s 754 mmHg 73%
    02:00 +3°C° 0 mm 1 m/s 754 mmHg 73%
    03:00 +3°C° 0 mm 1 m/s 754 mmHg 74%
    04:00 +2°C° 0 mm 1 m/s 754 mmHg 75%
    05:00 +1°C° 0 mm 2 m/s 754 mmHg 76%
    06:00 +2°C° 0 mm 2 m/s 755 mmHg 73%
    07:00 +3°C° 0 mm 2 m/s 755 mmHg 71%
    08:00 +4°C° 0 mm 2 m/s 755 mmHg 68%
    09:00 +5°C° 0 mm 3 m/s 755 mmHg 63%
    10:00 +7°C° 0 mm 3 m/s 755 mmHg 57%
    11:00 +9°C° 0 mm 3 m/s 754 mmHg 52%
    12:00 +10°C° 0 mm 3 m/s 754 mmHg 50%
    13:00 +10°C° 0 mm 4 m/s 753 mmHg 49%
    14:00 +11°C° 0 mm 4 m/s 753 mmHg 47%
    15:00 +10°C° 0 mm 3 m/s 752 mmHg 53%
    16:00 +9°C° 0 mm 3 m/s 752 mmHg 59%
    17:00 +8°C° 0 mm 2 m/s 751 mmHg 65%
    18:00 +7°C° 0 mm 2 m/s 751 mmHg 67%
    19:00 +5°C° 0 mm 3 m/s 751 mmHg 69%
    20:00 +4°C° 0 mm 3 m/s 751 mmHg 72%
    21:00 +4°C° 0 mm 3 m/s 751 mmHg 74%
    22:00 +4°C° 0 mm 3 m/s 751 mmHg 76%
    23:00 +3°C° 0 mm 3 m/s 751 mmHg 79%
    Mostrar mais